Location: Alta
(39.2070°N, 120.8111°W)
Time: 06:41:34
(UTC+00:00)

CZ-4B DEB - Pass Details

Date: 14 December 2023
Orbit: 838 x 858 km, 99.0° (Epoch: 02 March)

Event Time Altitude Azimuth Distance (km) Brightness Sun altitude
Rises 01:37:22 0° 118° (ESE) 3,423 7.0 -10.7°
Enters shadow 01:39:34 - 106° (ESE) 2,749 6.4 -11.1°
Exits shadow 01:41:15 12° 93° (E) 2,345 5.9 -11.4°
Maximum altitude 01:43:56 17° 61° (ENE) 2,056 5.6 -11.9°
Drops below altitude 10° 01:47:19 10° 23° (NNE) 2,500 6.3 -12.5°
Sets 01:50:31 0° 4° (N) 3,439 7.1 -13.1°
